Location: Unspecified
(47.1121°N, 116.3927°W)
Time: 21:05:54
(UTC-07:00)

ISS - Pass Details

Date: 21 May 2019
Orbit: 408 x 418 km, 51.6° (Epoch: 25 June)

Event Time Altitude Azimuth Distance (km) Brightness Sun altitude
Rises 02:08:46 0° 294° (WNW) 2,369 0.1 -20.0°
Reaches altitude 10° 02:10:53 10° 292° (WNW) 1,504 -1.0 -19.8°
Enters shadow 02:11:59 19° 290° (WNW) 1,069 -1.8 -19.7°
